Date String (YYYY-MM-DD hh:mm:ss) UTC,Instrument flags,Ambient pressure (hPa),Sample flow (lpm),Bypass flow (lpm),Sample temperature (°C),Ambient temperature (°C),ASC tube jacket temperature (°C),LED temperature (°C),Box temperature (°C),Sample RH (%),Span deviation,Mass concentration (μg/m³),Mass concentration (μg/m³),Mass concentration (μg/m³)
DateTimeUTC,F1_M11,P_M11,Q1_M11,Q2_M11,T1_M11,T2_M11,T3_M11,T4_M11,T5_M11,U1_M11,ZSPAN_M11,X0_M11,X2_M11,X1_M11
2023-02-22 23:00:00,,0808.6,4.98,0.00,23.1,22.9,00.0,31.7,24.9,04.6,0000.0,0004.27,0002.95,0002.46
2023-02-22 23:01:00,,0808.6,5.00,0.00,23.1,22.4,00.0,31.7,24.7,04.5,0000.0,0004.30,0002.97,0002.47
2023-02-22 23:02:00,,0808.6,5.00,0.00,23.0,21.9,00.0,31.7,24.6,04.5,0000.0,0004.46,0003.03,0002.49
2023-02-22 23:03:00,,0808.6,5.00,0.00,23.0,21.5,00.0,31.7,24.5,04.5,0000.0,0004.35,0002.99,0002.48
2023-02-22 23:04:00,,0808.5,5.01,0.00,22.9,21.3,00.0,31.7,24.4,04.6,0000.0,0004.36,0002.96,0002.47
2023-02-22 23:05:00,,0808.4,5.01,0.00,22.9,21.0,00.0,31.7,24.3,04.6,0000.0,0004.30,0002.96,0002.48
2023-02-22 23:06:00,,0808.5,4.97,0.00,22.8,21.4,00.0,31.7,24.4,04.6,0000.0,0004.29,0002.96,0002.49
2023-02-22 23:07:00,,0808.5,4.98,0.00,22.9,22.4,00.0,31.7,24.7,04.6,0000.0,0004.21,0002.94,0002.49
2023-02-22 23:08:00,,0808.5,5.01,0.00,23.0,23.2,00.0,31.7,24.9,04.6,0000.0,0004.35,0002.98,0002.49
2023-02-22 23:09:00,,0808.4,4.98,0.00,23.1,22.8,00.0,31.7,24.8,04.6,0000.0,0004.53,0003.04,0002.49
2023-02-22 23:10:00,,0808.4,4.98,0.00,23.0,22.3,00.0,31.7,24.7,04.6,0000.0,0004.60,0003.06,0002.50
2023-02-22 23:11:00,,0808.4,5.01,0.00,23.0,21.8,00.0,31.7,24.5,04.5,0000.0,0005.00,0003.10,0002.52
2023-02-22 23:12:00,,0808.4,5.01,0.00,22.9,21.4,00.0,31.7,24.3,04.6,0000.0,0005.27,0003.14,0002.53
2023-02-22 23:13:00,,0808.6,5.00,0.00,22.8,21.2,00.0,31.7,24.3,04.6,0000.0,0005.29,0003.13,0002.52
2023-02-22 23:14:00,,0808.7,5.01,0.00,22.9,22.0,00.0,31.6,24.5,04.7,0000.0,0005.20,0003.13,0002.52
2023-02-22 23:15:00,,0808.8,5.00,0.00,23.0,22.8,00.0,31.6,24.8,04.6,0000.0,0005.26,0003.15,0002.51
2023-02-22 23:16:00,,0808.8,4.97,0.00,23.1,23.5,00.0,31.7,25.0,04.6,0000.0,0005.38,0003.15,0002.49
2023-02-22 23:17:00,,0808.8,5.00,0.00,23.1,23.1,00.0,31.7,24.9,04.6,0000.0,0005.52,0003.16,0002.46
2023-02-22 23:18:00,,0808.8,5.02,0.00,23.1,22.5,00.0,31.7,24.8,04.6,0000.0,0005.55,0003.15,0002.44
2023-02-22 23:19:00,,0808.7,5.00,0.00,23.0,21.9,00.0,31.7,24.5,04.6,0000.0,0005.69,0003.12,0002.41
2023-02-22 23:20:00,,0808.6,5.00,0.00,22.9,21.3,00.0,31.7,24.4,04.7,0000.0,0005.65,0003.04,0002.37
2023-02-22 23:21:00,,0808.6,5.01,0.00,22.9,21.6,00.0,31.7,24.5,04.6,0000.0,0005.48,0002.98,0002.33
2023-02-22 23:22:00,,0808.8,4.99,0.00,23.0,22.4,00.0,31.7,24.7,04.6,0000.0,0005.22,0002.97,0002.29
2023-02-22 23:23:00,,0808.9,4.99,0.00,23.1,23.2,00.0,31.7,24.9,04.6,0000.0,0005.01,0002.91,0002.26
2023-02-22 23:24:00,,0808.9,5.00,0.00,23.2,23.4,00.0,31.7,25.0,04.5,0000.0,0005.20,0002.84,0002.23
2023-02-22 23:25:00,,0808.9,4.99,0.00,23.1,22.8,00.0,31.8,24.9,04.5,0000.0,0005.67,0002.82,0002.20
2023-02-22 23:26:00,,0808.9,5.00,0.00,23.1,22.2,00.0,31.8,24.6,04.5,0000.0,0005.62,0002.78,0002.17
2023-02-22 23:27:00,,0808.9,4.99,0.00,23.0,21.6,00.0,31.8,24.4,04.5,0000.0,0005.33,0002.71,0002.14
2023-02-22 23:28:00,,0809.0,5.00,0.00,22.9,21.2,00.0,31.8,24.3,04.5,0000.0,0005.22,0002.70,0002.15
2023-02-22 23:29:00,,0809.0,5.01,0.00,22.9,21.5,00.0,31.7,24.4,04.6,0000.0,0005.02,0002.63,0002.13
2023-02-22 23:30:00,,0809.0,5.01,0.00,23.0,22.3,00.0,31.7,24.7,04.6,0000.0,0004.91,0002.65,0002.13
2023-02-22 23:31:00,,0809.0,5.00,0.00,23.1,23.1,00.0,31.7,24.9,04.5,0000.0,0004.63,0002.66,0002.13
2023-02-22 23:32:00,,0809.1,5.00,0.00,23.2,23.3,00.0,31.7,24.9,04.5,0000.0,0004.81,0002.70,0002.14
2023-02-22 23:33:00,,0809.1,4.99,0.00,23.1,22.6,00.0,31.8,24.7,04.5,0000.0,0006.37,0002.71,0002.15
2023-02-22 23:34:00,,0809.1,5.01,0.00,23.0,21.9,00.0,31.8,24.5,04.5,0000.0,0006.78,0002.74,0002.16
2023-02-22 23:35:00,,0809.1,5.01,0.00,23.0,21.4,00.0,31.8,24.3,04.5,0000.0,0006.82,0002.76,0002.17
2023-02-22 23:36:00,,0809.1,4.99,0.00,22.9,21.0,00.0,31.7,24.2,04.6,0000.0,0006.26,0002.77,0002.17
2023-02-22 23:37:00,,0809.1,5.01,0.00,22.8,21.3,00.0,31.7,24.3,04.6,0000.0,0006.76,0002.79,0002.18
2023-02-22 23:38:00,,0809.1,5.01,0.00,22.9,22.2,00.0,31.7,24.5,04.6,0000.0,0007.38,0002.81,0002.21
2023-02-22 23:39:00,,0809.1,5.02,0.00,23.0,23.0,00.0,31.7,24.8,04.5,0000.0,0007.40,0002.81,0002.22
2023-02-22 23:40:00,,0809.1,5.00,0.00,23.1,23.1,00.0,31.7,24.8,04.5,0000.0,0007.40,0002.81,0002.22
2023-02-22 23:41:00,,0809.1,5.00,0.00,23.0,22.5,00.0,31.7,24.7,04.5,0000.0,0007.39,0002.82,0002.24
2023-02-22 23:42:00,,0809.1,5.00,0.00,23.0,21.8,00.0,31.7,24.5,04.5,0000.0,0007.47,0002.85,0002.26
2023-02-22 23:43:00,,0809.1,5.00,0.00,22.9,21.3,00.0,31.7,24.3,04.6,0000.0,0007.43,0002.84,0002.26
2023-02-22 23:44:00,,0809.1,5.01,0.00,22.8,21.1,00.0,31.7,24.2,04.6,0000.0,0006.21,0002.84,0002.26
2023-02-22 23:45:00,,0809.1,5.01,0.00,22.9,21.9,00.0,31.7,24.4,04.6,0000.0,0005.53,0002.79,0002.26
2023-02-22 23:46:00,,0809.1,5.01,0.00,22.9,22.8,00.0,31.7,24.7,04.6,0000.0,0005.50,0002.79,0002.26
2023-02-22 23:47:00,,0809.0,5.00,0.00,23.1,23.4,00.0,31.7,24.9,04.6,0000.0,0005.41,0002.80,0002.27
2023-02-22 23:48:00,,0808.9,4.99,0.00,23.1,23.0,00.0,31.7,24.8,04.6,0000.0,0005.06,0002.82,0002.30
2023-02-22 23:49:00,,0808.9,4.97,0.00,23.0,22.3,00.0,31.7,24.6,04.6,0000.0,0004.55,0002.84,0002.30
2023-02-22 23:50:00,,0808.9,4.99,0.00,22.9,21.7,00.0,31.7,24.4,04.6,0000.0,0004.89,0002.86,0002.29
2023-02-22 23:51:00,,0809.0,4.99,0.00,22.8,21.1,00.0,31.7,24.2,04.6,0000.0,0005.54,0002.93,0002.29
2023-02-22 23:52:00,,0809.0,5.02,0.00,22.8,20.9,00.0,31.7,24.1,04.6,0000.0,0005.60,0002.97,0002.32
2023-02-22 23:53:00,,0809.0,5.01,0.00,22.8,21.7,00.0,31.6,24.4,04.7,0000.0,0005.87,0002.97,0002.32
2023-02-22 23:54:00,,0809.1,4.98,0.00,22.9,22.5,00.0,31.6,24.7,04.6,0000.0,0006.14,0003.01,0002.34
2023-02-22 23:55:00,,0809.0,5.01,0.00,23.0,23.2,00.0,31.6,24.8,04.6,0000.0,0006.15,0003.03,0002.35
2023-02-22 23:56:00,,0809.1,5.01,0.00,23.0,22.8,00.0,31.7,24.7,04.6,0000.0,0006.36,0003.08,0002.37
2023-02-22 23:57:00,,0809.2,5.02,0.00,23.0,22.1,00.0,31.7,24.5,04.6,0000.0,0006.53,0003.12,0002.37
2023-02-22 23:58:00,,0809.2,5.00,0.00,22.9,21.6,00.0,31.7,24.3,04.7,0000.0,0006.56,0003.13,0002.37
2023-02-22 23:59:00,,0809.2,5.00,0.00,22.8,21.2,00.0,31.7,24.2,04.7,0000.0,0006.45,0003.14,0002.35
